Wind_Speed
31 32 32 33 36 38 37 37 37 36 35 34 34 34 35 36 35 36 38 39 40 41 42 42 43 45 48 51 54 54 53 54 55 56 58 59 59 59 58 57 58 58 59 59 58 57 57 57 56 56 56 56 57 59 60 61 62 62 60 60 62 64 65 66 66 65 64 64 64 62 61 62 64 65 65 65 65 65 65 66 68 69 70 70 70 70
34 34 33 35 38 39 38 37 36 35 34 33 34 35 35 37 38 39 40 41 42 43 44 45 47 49 53 56 58 58 57 57 58 60 61 62 63 63 62 62 62 62 62 61 60 59 59 59 58 59 59 59 59 59 60 61 63 64 64 64 64 65 67 68 69 68 67 66 65 64 63 63 64 65 65 65 65 65 65 65 66 67 68 70 72 72
36 36 36 38 40 40 39 37 36 35 35 35 36 37 38 39 41 41 42 43 45 47 49 51 52 55 58 60 61 61 61 61 63 64 66 67 67 67 67 66 66 66 65 64 63 62 61 61 61 61 62 63 64 64 63 64 64 65 66 67 67 68 69 70 72 73 72 70 68 67 66 66 66 67 67 67 67 66 66 66 67 67 67 69 70 70
37 38 39 41 41 41 39 38 37 36 37 38 38 40 41 42 44 45 46 47 49 51 53 56 57 58 60 61 61 63 64 65 67 68 69 70 70 70 70 70 70 69 69 69 67 66 65 65 66 66 67 68 69 69 68 68 67 67 68 68 69 70 71 72 73 75 75 74 72 70 68 68 68 69 69 69 68 68 67 67 68 68 67 68 70 71
39 40 40 40 40 40 39 38 38 38 38 39 39 41 42 43 45 46 47 48 50 53 56 59 59 59 59 60 61 63 65 66 68 68 69 70 70 71 71 71 71 71 72 72 71 70 71 72 73 73 73 74 74 74 73 72 71 71 70 70 70 72 73 74 76 77 77 76 74 72 70 70 70 71 71 71 71 70 69 69 69 69 69 70 71 70
40 39 38 39 38 38 38 38 38 38 38 39 39 41 42 44 45 46 48 49 51 55 59 61 62 61 60 60 62 64 66 66 66 67 68 69 70 71 71 71 71 71 72 73 74 75 76 78 79 80 81 81 80 80 79 77 76 76 75 73 72 73 74 76 78 79 79 78 77 75 73 71 71 72 73 74 74 73 73 73 73 74 74 74 72 69
38 38 37 38 37 38 37 37 37 38 38 39 41 42 43 44 46 47 49 51 53 56 59 62 63 63 61 61 63 65 66 66 67 68 69 69 70 70 70 71 72 73 75 76 77 79 80 82 83 83 85 86 86 85 83 81 79 79 79 77 76 75 77 79 80 80 80 80 79 77 75 74 74 74 75 76 77 77 77 76 76 77 78 78 78 76
37 37 37 37 36 36 36 37 38 39 40 41 42 43 45 47 49 50 51 53 54 56 59 61 62 64 64 64 65 66 67 67 68 69 69 69 70 70 71 72 74 76 77 78 80 81 83 85 86 86 87 88 89 88 86 84 82 81 80 80 79 78 78 81 83 83 82 81 80 79 78 78 78 77 77 78 79 80 80 79 78 78 78 79 79 80
37 38 38 36 36 36 37 38 39 40 42 43 44 45 46 48 49 50 51 53 55 56 59 62 63 66 67 66 67 69 69 69 70 70 69 70 71 72 73 74 76 78 79 81 82 84 85 87 88 89 89 88 88 87 86 85 85 84 83 81 81 80 80 81 83 86 86 85 84 82 81 81 81 79 79 80 81 82 82 82 81 81 81 81 80 80
38 39 38 37 37 38 39 39 40 42 44 45 46 47 47 48 49 50 52 54 56 57 59 62 64 69 71 69 69 72 72 72 72 71 71 73 74 75 76 77 79 81 83 84 84 85 86 87 87 88 89 89 88 87 86 84 84 84 84 83 82 81 82 83 83 86 88 90 89 86 82 80 80 80 80 81 83 84 84 84 83 84 84 85 85 84
40 41 40 40 41 42 42 42 43 45 47 47 48 49 49 50 50 52 54 56 58 58 60 63 67 71 74 73 72 74 75 75 74 74 75 77 77 78 79 80 82 84 86 86 86 86 86 86 86 87 88 88 87 86 84 82 80 79 80 81 82 82 83 84 85 86 88 90 92 90 85 79 77 78 80 82 83 84 86 86 86 86 86 87 88 88
42 43 43 43 44 45 45 45 46 48 49 50 51 52 52 52 53 56 58 59 61 62 63 66 70 73 75 75 76 75 76 77 77 78 80 81 81 82 82 83 85 87 88 88 88 87 87 87 86 86 86 85 82 79 74 71 69 69 71 73 75 77 81 84 85 85 86 88 90 92 90 84 79 78 80 82 83 84 85 85 85 85 86 87 88 89
42 43 44 45 46 47 48 49 49 50 51 52 54 55 56 56 57 59 62 63 65 66 66 67 72 75 75 76 76 76 78 80 80 81 83 85 86 86 86 86 87 88 88 89 88 87 86 84 83 83 81 77 69 63 58 54 53 54 56 58 60 63 68 75 81 84 86 86 86 88 89 88 85 82 81 83 85 85 85 85 84 84 84 85 87 87
43 44 46 47 47 48 49 50 51 51 52 53 55 57 58 59 61 62 64 66 68 69 68 68 71 74 75 76 76 77 80 82 82 83 85 86 88 88 87 87 86 86 87 88 87 85 80 78 77 75 69 63 56 52 48 46 45 45 44 45 46 46 49 54 62 70 78 83 86 86 87 89 89 87 85 84 85 86 86 86 85 85 84 84 84 85
46 46 47 48 48 49 49 49 50 50 52 53 54 56 58 60 62 63 64 66 70 74 73 71 72 74 76 77 77 79 81 82 82 84 85 86 87 86 85 84 84 85 85 84 82 78 73 70 67 61 55 53 52 50 48 47 45 43 41 39 38 38 39 41 44 49 55 65 74 81 85 88 90 90 89 87 86 87 87 86 85 86 87 87 85 83
46 46 47 47 48 48 48 49 49 49 51 53 54 56 58 61 62 63 65 67 71 76 77 75 75 76 78 79 80 82 84 84 84 84 85 87 86 83 83 83 82 82 81 79 75 69 65 61 56 51 49 50 50 49 48 46 44 41 38 35 34 34 35 36 38 40 42 46 51 58 65 71 78 84 88 89 88 88 88 87 86 86 87 89 90 87
47 46 46 47 48 48 49 49 49 50 52 54 56 58 60 62 64 66 67 68 72 77 78 77 78 79 80 80 82 84 84 85 86 87 88 87 84 82 83 83 81 79 76 72 66 61 56 52 50 50 49 48 47 45 43 41 39 36 35 33 31 30 30 32 33 35 38 40 42 44 46 50 56 64 72 80 85 87 88 89 89 89 90 92 93 92
48 46 46 48 49 49 50 50 49 50 53 55 57 60 62 65 67 69 69 71 75 79 80 80 82 83 81 79 83 84 84 87 90 90 89 86 83 84 84 82 78 74 70 64 57 52 49 48 49 49 48 46 44 42 40 38 37 36 35 34 32 29 29 29 29 29 30 33 36 38 38 40 42 45 52 59 68 77 83 86 89 91 93 95 96 96
49 47 47 49 49 49 49 50 50 52 53 56 58 61 64 67 69 70 70 73 77 82 84 84 85 85 82 82 85 87 88 91 93 92 90 87 85 85 83 79 74 69 63 56 50 47 46 47 48 46 45 44 43 42 41 40 39 38 38 36 34 32 30 29 27 26 26 27 29 30 31 33 34 37 40 44 50 57 65 71 77 82 87 91 93 94
48 49 48 48 49 49 49 50 52 54 55 57 60 62 64 66 69 70 70 72 75 80 84 87 88 87 84 85 88 90 91 93 94 94 91 87 85 83 79 74 69 64 57 49 46 46 47 47 45 43 42 43 43 43 43 42 41 40 40 38 36 34 31 29 26 24 23 24 25 26 26 27 29 32 35 39 42 46 50 54 58 64 70 76 81 84
48 48 48 49 49 49 50 51 53 54 57 59 61 63 65 68 70 72 72 72 74 78 81 86 91 89 86 87 90 91 93 94 95 94 91 87 83 79 74 67 62 57 50 44 44 46 48 46 43 41 41 41 42 42 42 43 43 42 41 39 37 35 33 29 25 23 21 21 22 23 24 25 26 29 32 36 39 41 43 45 48 50 55 60 65 70
48 48 49 50 50 50 50 51 53 56 59 61 63 65 68 70 72 74 74 74 75 77 78 83 91 91 87 88 91 92 94 95 95 93 89 84 79 73 68 61 55 49 43 42 44 46 47 46 42 40 40 40 40 41 42 43 43 43 42 41 38 36 34 30 25 23 21 20 21 22 23 23 24 26 29 32 35 37 39 41 42 44 46 48 52 56
49 48 49 51 51 50 50 52 54 56 58 60 62 64 68 71 72 73 75 75 77 80 80 84 91 91 87 89 91 91 93 94 94 91 86 81 75 69 64 57 48 42 38 40 44 45 46 44 41 39 39 39 40 41 42 43 43 44 43 42 39 37 35 32 27 24 22 21 21 22 22 23 23 25 26 28 29 30 31 33 35 37 38 40 42 45
50 49 50 52 51 50 50 52 54 55 55 57 59 62 67 69 71 72 73 75 79 83 84 87 92 91 87 87 90 92 93 93 92 88 83 78 72 66 61 52 43 38 37 39 42 43 43 41 39 39 38 39 40 42 44 45 44 44 43 42 40 37 35 33 29 27 25 23 22 22 23 23 24 24 25 25 25 25 26 27 28 29 31 32 34 36
50 50 52 54 55 55 55 55 57 57 57 59 62 65 68 70 72 73 72 74 81 85 86 88 93 93 89 88 91 94 94 94 92 87 81 76 70 63 56 46 38 36 37 39 42 42 41 40 39 39 39 40 42 44 46 46 45 44 42 41 39 37 34 32 30 28 26 25 24 23 23 23 24 25 25 25 25 25 26 26 27 28 29 31 32 33
51 52 53 55 58 59 59 59 62 63 63 64 66 68 70 72 75 76 75 77 83 88 88 89 93 96 93 92 95 96 96 95 92 87 81 73 64 58 50 40 34 35 38 40 42 41 40 39 39 40 41 42 43 45 46 46 45 44 42 40 39 37 34 32 30 28 26 26 25 25 25 24 25 25 26 26 26 27 27 28 29 31 32 34 36 37
52 53 53 53 55 57 58 58 62 64 65 66 67 69 71 73 77 79 78 80 85 91 93 91 94 99 98 97 99 98 96 95 92 88 82 71 61 52 42 34 31 34 38 40 40 39 39 39 40 40 41 41 41 42 43 44 44 43 41 40 39 37 35 33 30 28 27 27 26 26 26 26 26 26 27 28 29 30 31 32 33 34 36 38 40 42
52 52 53 51 52 54 56 57 60 63 65 67 68 69 71 73 78 81 80 82 86 93 96 94 95 99 101 100 100 98 96 95 92 88 80 68 57 47 38 32 30 33 36 38 38 37 37 38 39 40 40 40 39 38 39 40 40 40 40 39 39 38 36 34 32 30 29 28 28 28 28 28 28 29 30 30 31 32 34 35 37 38 40 41 43 45
51 52 53 52 51 53 55 56 60 63 65 67 69 69 72 74 78 81 82 83 87 92 96 96 96 99 101 101 100 98 96 94 90 85 74 61 51 42 34 31 31 33 35 36 35 34 34 35 36 38 40 41 40 38 37 36 36 36 36 36 37 37 36 36 34 32 31 30 29 30 30 30 31 31 32 33 33 35 37 39 40 42 43 44 46 49
51 52 54 54 52 53 56 57 60 63 65 67 68 69 73 76 79 82 83 83 86 91 93 95 98 100 101 101 100 97 94 91 87 80 67 53 44 36 30 29 30 32 34 34 32 31 32 33 34 36 39 41 40 37 36 35 34 33 33 33 33 33 34 35 35 34 33 32 32 32 32 32 33 33 34 35 36 37 39 41 44 45 45 47 50 52
53 53 55 56 56 55 57 58 60 64 66 68 69 71 74 76 79 84 84 83 87 92 94 97 100 102 102 101 99 95 90 87 83 74 60 46 38 32 28 27 29 31 32 31 30 30 30 31 32 34 37 39 38 37 35 34 33 32 32 32 32 32 32 34 35 35 35 35 34 34 34 34 34 35 35 37 39 41 42 44 46 47 48 50 52 54
56 57 58 60 60 59 60 60 62 65 68 70 71 73 76 78 80 84 85 84 89 94 97 101 103 103 102 100 98 92 87 84 79 68 55 41 30 27 27 27 28 29 29 28 28 29 30 31 32 33 34 36 36 36 36 36 35 34 33 32 31 32 33 34 35 36 36 36 36 36 36 36 36 37 38 39 41 43 44 46 47 48 49 51 53 54
59 60 62 63 63 62 63 63 63 67 70 72 73 76 80 81 83 85 85 85 90 95 98 102 103 103 102 100 97 92 87 83 75 63 52 42 29 21 22 25 26 26 27 27 28 30 32 33 34 34 35 36 36 37 37 38 38 36 36 34 33 33 34 34 35 36 36 37 36 36 37 37 37 38 38 40 42 43 44 46 47 47 49 51 52 51
61 62 63 64 64 64 65 64 65 69 72 74 76 79 83 84 86 87 86 87 92 94 97 101 103 102 101 98 95 92 87 80 71 59 49 42 35 25 21 23 25 25 26 28 30 32 34 34 35 36 37 37 38 39 39 40 40 39 38 37 36 35 35 35 34 35 35 36 36 36 36 36 36 36 37 39 40 41 42 44 45 45 48 49 49 47
61 62 63 64 65 66 67 67 69 71 74 77 79 82 84 85 86 88 87 88 93 97 99 103 103 100 99 96 92 88 83 74 64 54 45 37 35 33 28 25 24 24 26 29 31 33 35 36 37 38 39 39 40 40 41 41 41 40 39 39 37 36 36 36 35 34 34 34 34 33 33 34 34 34 36 37 38 39 40 42 42 43 45 45 44 40
62 63 64 65 66 68 68 69 70 72 74 78 80 83 86 88 90 94 94 93 96 100 103 104 103 100 99 96 90 85 79 67 54 47 44 36 33 35 35 32 30 29 30 32 34 35 36 37 39 41 41 42 42 42 42 42 42 42 41 40 38 36 35 35 34 34 33 32 31 31 31 31 31 32 33 33 35 37 39 40 41 42 42 40 36 31
63 63 64 66 67 69 70 70 70 72 76 80 82 85 89 91 93 98 100 99 100 101 103 104 104 103 100 96 90 83 77 64 46 37 39 37 32 33 35 36 37 36 36 38 39 39 39 40 41 44 45 45 45 44 43 42 42 42 41 40 39 37 35 34 34 33 32 30 29 29 29 29 29 29 30 31 33 36 38 39 40 39 37 32 27 24
64 65 65 65 66 68 71 72 73 75 78 82 83 85 89 92 94 97 100 101 101 101 103 105 105 104 101 96 90 83 77 64 45 32 33 35 32 32 34 35 38 40 41 41 41 41 42 42 43 46 47 48 48 47 45 42 41 41 41 40 39 37 35 34 33 32 30 28 28 28 27 27 27 27 28 30 33 36 38 38 35 32 29 25 21 20
65 65 65 65 65 68 71 72 74 77 80 84 85 87 89 93 95 98 101 102 102 103 105 106 105 103 101 96 89 82 76 66 48 34 29 31 32 33 34 35 38 41 42 43 43 43 43 44 45 47 47 48 49 48 46 43 40 40 40 39 38 36 35 33 32 30 28 26 26 26 25 25 25 26 29 31 34 35 35 32 28 24 21 20 20 20
65 64 65 66 66 68 71 72 74 77 81 84 86 88 92 94 97 101 104 106 106 106 106 105 104 102 99 94 87 80 72 64 53 41 33 31 31 32 35 37 39 40 41 42 43 44 45 46 47 47 47 47 47 46 45 43 40 39 38 37 36 34 33 32 31 29 26 24 23 22 22 23 25 27 29 31 31 30 26 22 19 18 18 18 19 19
66 65 65 66 67 68 71 73 74 76 80 84 86 90 95 97 99 103 107 108 108 108 107 105 103 101 97 92 85 78 69 60 53 46 41 37 35 34 36 38 40 42 43 43 44 45 45 46 48 49 49 48 46 44 42 41 39 37 36 35 33 32 32 31 29 27 24 21 19 19 21 23 25 27 28 28 24 20 17 16 16 15 15 15 15 16
67 67 66 67 68 69 72 75 76 78 81 84 88 92 97 100 103 105 106 107 108 108 108 106 103 100 96 91 84 77 68 58 51 46 44 42 41 39 39 41 42 43 44 44 45 46 47 47 48 48 49 49 47 44 41 39 36 34 33 32 31 30 30 30 28 25 20 17 17 18 21 23 25 26 25 21 17 15 14 14 12 11 12 12 14 16
69 69 68 69 70 71 74 78 80 82 85 88 92 96 98 100 103 105 106 106 107 107 107 106 103 99 95 91 84 75 67 58 51 46 44 45 45 44 44 45 46 46 45 45 46 47 48 49 49 50 50 50 48 45 41 38 34 32 31 29 28 28 28 28 26 22 16 14 16 18 20 22 23 22 19 16 14 13 10 7 7 9 11 11 10 9
70 70 69 70 73 75 77 80 81 83 87 90 93 96 97 98 100 103 105 106 106 106 106 106 104 99 94 90 84 75 66 57 50 45 44 45 46 48 48 49 49 48 48 49 49 50 51 52 52 53 52 50 47 44 41 37 34 31 28 26 25 25 25 26 24 18 13 12 15 17 19 20 19 16 14 13 10 5 4 6 9 10 9 6 3 2
69 69 68 69 72 75 77 80 81 83 86 88 91 93 95 97 99 101 103 103 104 105 106 106 104 99 94 89 83 74 65 56 49 45 45 46 48 50 51 51 52 51 51 51 52 54 55 57 57 55 53 51 47 43 39 35 33 30 26 23 22 22 22 23 20 15 12 12 14 16 17 16 13 11 11 8 4 7 7 9 10 8 3 1 2 4
69 69 69 70 72 74 76 79 81 82 85 87 89 91 94 96 98 99 100 101 102 104 105 105 103 99 93 88 81 73 65 56 48 46 47 50 51 52 53 54 54 53 52 53 56 59 60 60 60 57 54 51 47 42 37 32 30 28 24 20 19 20 20 20 16 12 11 11 13 15 14 10 8 8 6 4 8 7 7 9 7 2 1 2 5 7
69 70 70 70 72 75 77 79 82 83 85 88 89 90 92 93 95 97 99 100 102 104 104 104 102 97 92 86 80 73 64 55 49 46 48 51 53 55 55 55 53 53 55 58 61 63 64 63 60 58 54 50 45 40 34 28 26 25 21 17 16 17 18 16 12 10 10 11 13 13 9 6 6 4 5 8 6 5 7 7 4 2 2 5 7 8
71 72 72 72 74 76 78 80 81 81 82 84 87 89 92 93 95 97 99 100 102 103 103 102 100 96 91 85 80 72 63 55 49 48 50 53 55 56 56 54 53 55 58 62 65 66 65 63 60 56 52 46 41 35 29 24 22 21 17 14 14 15 16 13 9 8 9 10 12 10 4 3 3 4 8 6 3 4 6 7 5 4 4 5 6 7
72 73 75 75 76 78 80 81 82 82 82 83 87 90 93 95 98 99 100 101 102 103 103 101 99 95 89 83 78 72 63 54 49 50 52 54 56 56 55 54 55 57 61 64 67 67 64 61 57 51 47 43 37 29 22 19 19 17 14 12 12 14 14 9 5 6 8 10 11 6 1 3 3 6 6 3 2 4 4 4 4 4 4 5 7 8
74 74 76 78 80 81 82 82 85 87 88 89 91 93 95 97 99 100 101 102 103 103 102 101 99 94 88 81 76 70 62 53 49 51 54 56 57 56 56 55 56 59 64 67 67 64 61 57 52 46 42 38 31 22 15 15 16 14 11 10 11 13 12 6 4 5 7 10 9 3 4 5 4 6 5 2 1 3 3 3 2 2 3 6 8 9
76 76 78 80 82 83 83 83 85 88 90 91 93 95 96 98 99 101 101 102 103 102 101 99 98 94 89 81 73 67 60 53 50 52 55 56 57 58 58 58 59 62 66 66 63 59 56 52 47 42 38 33 25 18 14 15 14 11 9 9 11 12 9 4 3 5 7 10 8 0 6 6 5 5 4 4 2 1 3 3 2 2 3 5 7 7
Wind_Direction
338 336 334 332 331 331 332 332 332 330 328 327 327 326 324 322 320 320 320 319 318 316 316 317 318 319 320 320 320 319 317 316 316 315 313 312 310 309 307 305 303 301 299 298 296 295 294 293 293 292 292 291 289 288 286 283 280 277 273 269 268 268 269 269 269 268 267 266 265 263 262 263 263 263 263 262 262 263 263 262 261 261 260 260 259 259
338 336 332 331 333 333 334 333 331 329 328 328 328 325 321 320 319 320 319 319 318 316 316 317 318 320 322 323 323 321 319 318 317 316 315 313 312 310 308 306 303 300 298 296 295 294 294 293 293 293 292 291 290 288 286 283 280 277 274 271 268 266 266 266 266 265 265 265 264 262 260 259 260 261 262 263 263 263 263 263 262 261 260 260 259 259
337 336 333 334 336 335 334 332 331 330 329 329 326 323 321 320 320 321 322 321 320 319 320 320 321 322 323 323 323 321 319 318 317 316 315 314 312 310 308 306 303 301 298 297 296 296 296 295 294 293 292 291 290 288 285 283 280 277 274 271 268 266 264 264 264 264 263 263 262 262 261 259 258 258 259 261 262 262 263 264 263 262 260 260 259 258
337 338 337 337 336 334 333 332 331 330 329 327 324 322 321 322 323 324 323 322 321 321 322 321 320 321 322 321 321 320 319 317 316 315 314 313 311 309 307 306 304 302 300 298 297 297 296 296 295 294 293 292 291 288 285 282 279 276 273 270 268 266 264 263 262 262 261 261 261 261 260 259 258 257 257 257 258 259 260 261 260 258 255 255 256 257
338 338 337 336 334 333 332 332 331 329 325 322 321 321 321 322 324 323 321 320 320 321 321 320 319 319 320 320 320 319 318 316 315 314 313 311 310 309 307 306 305 303 301 299 297 296 296 296 295 294 293 292 291 290 287 283 279 275 272 269 266 264 262 261 261 260 259 258 258 258 258 258 258 258 258 258 257 256 255 254 254 254 251 251 254 255
337 336 334 333 332 332 331 331 330 326 320 318 319 320 321 321 321 320 319 320 321 322 321 321 320 319 320 320 321 320 318 317 316 314 313 311 309 309 308 306 305 303 301 299 297 296 295 295 294 293 292 291 291 290 288 284 281 277 274 270 266 262 258 256 256 256 256 255 255 255 255 254 255 256 258 259 258 257 254 252 251 250 250 250 251 251
335 335 333 333 333 331 330 328 324 321 319 319 321 321 321 321 320 319 320 322 323 322 321 321 321 320 320 321 322 320 318 318 316 314 313 312 311 309 308 306 304 302 300 298 297 296 295 293 292 292 291 291 290 289 287 284 280 277 274 271 268 263 257 253 251 250 250 250 250 250 250 250 252 253 254 256 257 258 257 255 253 252 251 251 251 251
335 336 335 334 332 329 328 325 323 323 323 323 322 322 321 321 321 321 322 323 322 322 321 321 322 321 321 323 322 320 319 318 316 315 314 314 312 310 307 305 304 302 301 299 298 296 295 294 292 291 291 291 291 290 288 285 280 275 272 270 268 265 260 254 250 249 248 247 247 246 247 248 249 250 251 252 254 255 256 256 256 255 254 252 251 251
338 338 336 334 331 329 327 327 327 327 325 324 323 322 322 322 322 322 322 322 321 322 322 322 323 321 321 324 322 320 320 318 316 316 315 315 314 311 309 308 307 305 304 302 300 298 297 296 295 294 293 293 292 290 287 284 280 276 271 267 266 264 261 256 252 250 249 250 250 250 250 250 250 249 249 250 251 252 252 253 254 254 254 254 254 252
340 339 336 335 333 330 329 329 329 327 326 325 324 324 324 323 323 322 322 322 322 324 325 324 325 323 322 324 324 322 321 319 318 318 317 317 317 315 313 312 310 308 306 304 302 300 299 297 296 295 294 293 291 289 286 283 279 275 271 268 265 263 261 259 255 252 251 251 252 253 254 254 252 249 248 248 248 249 250 251 252 252 252 253 253 253
340 339 337 336 334 333 332 331 330 329 327 326 325 326 325 324 323 322 322 323 324 327 328 327 326 324 324 326 327 325 323 321 321 321 320 319 318 318 316 314 312 309 307 305 302 301 300 298 297 295 293 292 292 291 288 285 281 276 273 270 267 265 263 261 259 257 255 253 252 252 253 253 252 250 248 246 246 247 248 249 250 250 250 250 251 252
341 340 338 336 335 335 334 332 330 329 329 329 328 327 326 325 324 324 324 326 328 330 332 330 327 326 327 328 328 326 324 324 324 323 321 321 320 319 317 315 313 311 309 307 305 303 302 300 298 296 294 294 294 293 291 288 284 280 277 274 271 268 265 263 262 260 258 256 254 252 251 251 251 250 248 246 245 246 246 247 248 249 250 250 250 250
341 339 338 337 337 336 336 333 331 331 331 331 329 327 326 325 326 326 327 329 330 332 333 331 328 327 327 327 327 325 325 325 325 324 323 323 322 320 318 316 315 312 310 308 306 304 303 301 299 298 298 298 297 296 294 292 290 288 285 283 280 275 270 266 263 261 259 258 257 255 252 251 251 250 249 247 246 245 245 246 247 248 249 249 249 250
341 341 339 339 338 337 335 334 333 333 333 331 329 328 329 329 330 331 331 331 330 330 332 330 328 327 327 326 325 325 326 326 325 325 325 324 322 320 319 317 314 311 309 308 307 305 304 301 300 301 301 301 301 300 298 296 294 294 293 291 288 285 281 276 271 266 261 259 258 257 255 254 253 251 251 250 249 247 247 246 247 247 248 248 247 247
343 342 341 339 339 336 335 334 334 334 333 331 331 331 331 332 334 334 334 333 330 329 330 330 328 328 328 327 327 328 328 327 327 327 326 324 322 321 318 315 312 310 309 308 307 306 304 302 302 303 303 303 304 302 299 298 297 297 296 294 292 291 289 287 284 278 271 264 261 260 259 259 257 255 253 252 252 250 250 249 249 249 249 248 246 245
343 342 341 339 337 335 334 334 334 334 332 331 332 331 332 333 334 334 334 333 330 328 329 330 329 329 330 330 331 331 330 329 329 328 326 324 323 321 317 315 313 311 310 309 308 307 305 304 305 306 306 306 305 303 302 301 302 302 301 299 296 293 290 288 287 285 281 275 269 265 263 262 261 259 257 256 255 253 252 252 252 250 249 248 247 246
345 341 339 338 336 335 334 334 334 333 332 331 332 332 333 335 335 333 332 331 329 327 327 329 329 331 334 334 334 334 332 330 329 328 327 326 324 320 317 316 315 313 312 311 310 308 307 307 309 310 311 310 308 306 306 306 306 307 307 306 303 299 295 292 290 286 282 279 276 272 269 265 263 262 260 259 257 256 256 255 254 252 250 249 248 247
346 342 339 338 336 335 333 333 332 332 331 332 332 333 335 336 335 333 333 332 330 328 328 329 330 334 338 337 336 335 332 330 329 328 328 328 325 321 318 317 317 316 315 312 310 309 308 309 311 313 313 313 312 312 312 312 312 312 312 312 311 308 304 299 295 288 282 278 276 274 274 272 270 267 264 261 259 258 258 258 257 255 253 251 251 251
345 343 340 338 336 334 332 331 330 331 332 332 333 335 336 336 334 333 335 336 333 329 329 330 332 337 340 338 336 335 333 330 329 329 329 328 325 323 321 320 319 318 316 313 311 309 309 310 312 314 314 314 314 315 314 314 315 315 315 315 315 313 311 306 298 288 281 277 274 273 273 274 274 272 269 266 263 260 259 258 258 257 255 254 255 255
343 343 341 337 335 334 331 330 331 331 332 332 334 335 334 333 331 331 334 335 332 330 329 331 334 339 340 338 337 335 333 330 328 329 329 328 327 325 323 321 320 319 315 312 310 309 310 312 314 316 315 314 314 314 313 313 314 315 315 315 315 314 313 311 303 291 280 274 271 270 269 269 268 268 267 266 265 264 261 260 258 256 255 254 254 255
342 341 340 338 336 333 332 332 331 331 332 333 334 334 332 332 331 329 331 333 333 332 332 332 335 340 341 338 336 334 332 330 329 329 329 329 328 326 324 322 320 317 313 310 310 311 313 314 314 315 315 313 312 311 310 310 311 313 314 314 314 313 313 312 307 297 285 277 273 270 267 265 263 262 261 261 262 262 262 261 260 259 257 256 255 255
340 339 339 337 336 335 333 332 332 333 334 334 334 333 332 332 331 330 331 334 334 335 335 334 336 340 340 337 336 334 332 330 329 329 330 330 328 326 324 322 318 314 311 309 310 313 313 312 312 313 313 312 311 309 308 307 308 310 311 312 312 311 311 312 309 303 295 288 285 281 276 271 266 263 262 261 261 262 263 264 264 265 264 263 262 261
339 338 338 336 336 334 333 332 333 335 334 333 332 331 331 331 331 331 333 335 336 335 336 336 336 339 340 337 334 333 332 330 329 330 331 330 328 327 325 323 318 311 307 307 309 311 311 311 310 310 311 310 309 307 306 306 306 308 309 310 310 310 309 310 310 307 303 300 297 293 289 282 275 271 269 269 270 270 271 270 270 271 271 270 270 269
338 337 336 336 335 334 333 333 333 334 332 330 331 331 331 331 330 332 334 336 337 336 337 337 335 338 340 337 332 332 332 331 329 331 332 331 330 328 326 323 317 309 307 307 308 309 309 308 307 308 309 308 307 305 305 305 306 307 308 309 309 309 308 307 308 308 306 305 303 299 294 288 282 278 275 275 277 278 278 276 275 275 275 276 275 274
338 336 335 334 335 336 336 336 335 335 333 332 333 333 333 332 331 332 334 337 337 336 338 338 335 336 340 336 332 332 333 332 331 332 334 333 330 327 325 322 314 307 307 308 309 309 307 307 307 308 309 309 308 307 307 307 308 309 309 309 308 307 306 305 305 306 306 305 303 300 295 289 283 280 279 279 280 282 283 284 286 287 286 285 283 281
339 337 335 335 336 337 338 338 336 335 334 334 334 334 333 332 331 332 336 340 339 336 338 339 335 336 339 337 333 334 334 333 332 334 336 334 329 325 323 319 311 307 308 309 309 308 307 307 308 308 310 311 311 311 310 310 310 311 311 309 308 307 305 304 303 303 303 301 299 296 293 288 284 282 282 283 285 287 289 291 293 294 294 293 291 289
339 338 337 337 337 336 337 337 334 333 333 333 333 334 333 333 332 334 339 343 340 336 338 340 337 337 339 338 335 335 335 334 334 336 337 334 329 325 322 316 309 307 308 308 307 306 306 307 307 309 312 313 314 314 313 313 313 312 312 310 309 307 305 304 302 301 300 298 295 293 290 287 285 284 285 287 289 292 294 295 296 296 296 296 295 294
339 338 337 337 337 335 334 335 333 332 332 332 333 333 333 333 334 335 340 345 341 337 338 340 338 337 339 338 336 336 336 335 335 337 337 334 329 326 321 314 309 308 308 306 304 304 305 307 310 314 317 319 319 317 315 314 314 314 313 312 310 307 305 303 301 299 297 295 293 291 289 287 286 285 286 287 290 293 295 296 297 297 298 298 297 295
338 337 337 337 336 335 334 334 333 332 332 332 333 333 333 334 335 336 341 345 341 337 339 340 339 339 339 338 338 337 337 337 336 336 336 333 328 323 315 310 310 309 308 305 302 304 308 311 316 320 323 324 322 319 318 316 315 315 314 312 310 308 306 303 300 298 295 293 291 290 288 287 286 285 286 288 290 293 294 295 295 296 297 297 296 295
338 338 337 336 337 336 336 335 334 332 332 332 332 332 333 336 337 337 342 345 340 338 340 340 339 340 340 339 339 339 337 336 336 337 337 333 327 320 310 306 309 309 307 304 304 307 312 315 319 324 327 327 325 322 321 320 318 316 313 310 308 306 304 302 300 298 295 293 291 289 287 286 285 285 286 288 290 291 292 293 293 294 295 295 295 294
338 338 338 337 338 338 337 337 335 333 333 332 333 334 335 338 339 340 344 346 341 339 342 341 341 342 341 341 341 339 337 336 338 340 338 333 327 319 310 308 309 308 306 305 306 311 314 316 321 327 329 328 326 323 321 321 319 317 314 310 307 305 303 301 299 297 295 293 291 289 287 286 286 286 287 288 289 290 290 291 291 293 293 293 293 293
339 339 339 339 340 339 338 339 337 335 333 333 335 335 336 339 342 343 347 348 342 341 343 343 343 343 342 342 342 340 339 339 341 342 340 336 329 318 312 312 311 308 306 307 311 315 318 320 324 328 330 330 327 323 320 318 318 317 314 312 309 306 304 301 299 297 295 293 291 289 288 287 286 286 286 287 287 288 289 289 290 291 291 291 292 293
340 340 340 340 342 341 339 339 338 335 334 335 336 337 338 342 344 345 349 348 344 343 344 343 343 343 343 343 343 342 341 341 344 346 345 343 338 323 315 315 313 312 313 315 318 322 324 325 328 330 331 331 329 325 320 317 317 317 315 313 311 309 306 303 301 298 295 293 291 289 288 287 285 285 286 286 287 288 288 289 290 290 290 290 292 294
340 340 340 340 341 340 340 340 338 336 336 337 339 341 342 344 344 345 349 349 344 344 344 343 345 344 343 344 344 343 344 344 346 349 348 346 345 339 329 322 319 320 322 323 324 326 327 328 330 331 331 330 329 326 322 318 315 315 314 313 312 310 308 305 303 300 297 294 291 290 288 288 287 288 288 287 288 288 288 288 289 290 290 292 294 295
341 340 340 340 340 339 339 340 340 340 339 339 341 342 343 344 344 344 349 349 345 345 345 345 346 345 344 345 345 344 345 347 350 351 349 348 349 344 338 333 330 330 331 330 328 327 328 329 330 331 330 329 328 325 321 318 315 314 314 313 312 311 309 308 306 303 300 295 292 290 290 290 290 290 290 290 289 288 288 288 289 290 292 294 294 294
341 341 341 340 340 339 339 340 342 341 339 340 342 343 343 345 345 344 349 351 348 346 346 346 346 345 345 346 346 345 346 349 353 354 352 351 350 345 340 337 336 337 337 335 332 329 329 329 329 329 328 327 326 323 320 317 315 314 314 313 311 310 310 311 310 308 305 300 296 293 293 293 294 294 294 293 291 289 289 289 291 293 294 294 293 293
342 342 341 341 341 340 339 340 341 340 340 342 345 345 344 346 347 346 348 351 349 347 346 345 346 346 346 347 347 346 346 350 355 358 355 352 349 342 338 336 336 338 338 336 334 331 329 328 327 327 327 326 325 323 320 317 315 314 313 312 311 310 312 315 315 313 309 304 299 297 297 298 299 298 296 294 291 290 290 292 294 295 294 293 292 291
343 343 342 341 341 340 339 340 341 342 343 344 346 347 345 346 347 346 347 349 349 347 346 346 347 347 346 347 348 347 346 349 355 360 355 351 347 340 337 337 336 336 336 335 333 331 328 327 326 326 326 325 324 322 320 318 315 312 311 311 310 310 313 317 317 314 309 304 301 300 300 301 302 300 297 294 293 293 295 296 297 295 293 290 288 286
344 343 343 342 341 341 341 342 343 344 344 345 346 346 346 347 347 346 347 349 349 348 347 347 348 348 347 347 348 347 346 347 352 360 356 349 347 341 337 337 335 334 334 333 331 329 327 326 325 325 324 323 321 320 319 318 316 312 309 309 310 311 314 317 316 312 307 303 301 303 304 305 304 301 298 297 297 298 299 299 297 294 290 287 284 281
344 344 343 342 342 342 342 343 344 344 344 345 346 346 346 347 347 347 348 349 349 349 348 347 348 348 347 347 348 348 347 345 346 353 354 349 346 341 336 335 334 333 333 331 329 327 326 325 325 324 323 321 319 318 318 317 316 312 310 309 310 312 315 316 314 310 305 302 303 306 308 307 304 301 301 302 302 302 301 300 298 293 289 287 285 283
345 344 344 343 343 343 343 344 345 345 345 346 346 346 346 348 349 349 350 350 349 349 348 347 347 348 347 347 348 347 346 344 341 343 346 345 344 342 338 336 334 333 331 329 327 326 326 327 326 324 323 322 320 319 319 318 316 312 309 309 311 313 314 314 313 309 305 304 308 310 308 305 303 305 307 308 306 304 304 304 300 295 293 291 290 292
346 346 345 344 344 344 343 343 344 346 347 346 347 348 348 349 350 351 351 350 349 348 347 347 348 347 346 347 348 347 345 343 340 339 342 343 342 341 340 337 335 332 330 330 329 328 328 328 328 326 324 322 321 320 319 320 318 313 309 310 312 314 314 314 312 309 307 308 312 311 307 305 307 311 313 313 310 308 309 308 305 304 302 301 302 305
347 346 346 345 344 345 344 344 346 348 349 348 349 350 351 351 351 350 351 351 349 348 347 347 347 347 346 346 348 348 346 343 341 340 341 341 341 340 340 338 335 333 332 332 332 331 330 328 327 326 324 322 320 319 317 319 320 315 310 311 314 315 315 314 312 310 310 313 313 308 306 310 315 318 320 318 314 314 317 328 339 334 321 315 313 311
347 347 347 346 345 345 345 346 348 349 349 350 350 351 350 351 351 350 350 350 349 348 347 347 347 347 347 346 347 348 347 344 342 341 341 342 341 340 339 338 336 335 334 334 333 332 330 329 328 327 325 322 320 318 316 318 320 316 310 310 314 316 314 313 311 311 314 316 311 308 311 317 321 327 330 326 324 343 42 36 12 353 336 327 325 304
348 347 348 347 347 347 346 346 348 349 349 350 350 350 350 351 351 351 350 350 349 348 348 348 347 348 347 346 347 348 347 345 343 341 341 341 341 339 338 338 336 335 334 333 333 332 331 330 329 327 325 322 319 317 315 315 318 316 310 309 314 316 313 312 312 314 318 317 313 314 319 323 328 338 342 344 38 87 67 27 10 1 350 353 356 342
348 347 347 347 347 347 347 347 348 349 349 350 350 350 350 351 351 350 350 350 349 349 349 349 348 348 348 347 347 348 348 346 344 343 341 341 340 338 338 337 335 333 333 334 333 332 331 330 329 327 324 320 317 315 313 313 315 314 309 308 313 315 312 312 313 316 319 319 320 322 324 329 339 350 7 80 104 86 42 23 23 36 88 39 27 22
347 347 347 347 346 347 348 348 349 349 349 349 349 349 349 350 350 350 350 350 350 350 350 350 349 349 348 347 347 348 348 346 345 344 343 340 339 338 338 336 334 334 335 334 334 333 331 330 329 327 324 320 316 313 310 310 312 312 307 307 313 314 312 313 316 319 322 325 326 326 328 339 352 22 105 119 108 62 44 50 65 87 46 28 25 26
347 347 347 346 346 347 348 349 349 350 349 348 348 348 349 350 351 352 352 352 351 351 351 350 350 349 349 348 347 348 349 347 345 344 343 340 339 339 338 337 337 337 336 335 335 334 333 332 332 330 327 324 321 316 310 308 312 312 307 308 315 313 311 316 320 321 327 332 330 328 336 11 31 114 131 126 93 56 58 64 62 41 19 8 7 14
348 347 346 346 346 347 348 348 348 349 349 349 349 350 351 351 352 352 353 353 352 352 352 351 351 351 350 349 347 347 348 348 345 343 342 341 340 340 339 339 339 337 337 337 337 336 336 336 336 334 332 330 327 322 314 311 314 313 308 313 319 315 313 320 327 325 335 340 334 330 89 108 121 144 148 138 93 85 84 84 68 35 11 3 9 15
347 347 346 345 346 347 348 348 348 349 350 350 351 351 351 352 352 353 353 353 353 353 352 352 352 352 352 350 347 346 347 347 345 343 342 342 342 342 341 340 339 338 338 339 339 339 340 341 340 338 337 336 335 332 326 320 321 321 318 322 323 317 316 326 338 335 347 349 338 331 142 138 146 163 178 189 119 88 90 95 68 20 10 11 11 9
347 346 346 347 347 348 349 349 349 349 350 350 351 351 351 352 352 353 353 353 354 354 353 352 352 352 352 352 349 346 345 345 344 343 343 344 345 344 343 341 341 342 342 343 343 345 346 346 345 344 344 345 347 348 342 335 334 335 334 333 328 320 318 331 344 343 358 358 347 246 155 149 153 173 199 209 197 39 39 50 26 1 17 15 7 358
Height
5771 5768 5765 5762 5759 5756 5752 5749 5746 5743 5740 5736 5734 5730 5727 5724 5721 5717 5714 5711 5707 5704 5701 5698 5695 5692 5688 5684 5680 5675 5670 5665 5660 5655 5651 5647 5643 5639 5635 5631 5626 5622 5617 5613 5610 5606 5602 5598 5595 5592 5589 5587 5584 5582 5580 5577 5574 5572 5571 5569 5568 5566 5565 5563 5561 5559 5557 5556 5555 5555 5554 5552 5551 5550 5549 5549 5548 5549 5549 5549 5549 5548 5548 5548 5548 5548
5768 5765 5762 5759 5756 5752 5748 5745 5742 5739 5736 5732 5729 5726 5723 5720 5718 5713 5709 5706 5702 5698 5696 5693 5690 5687 5682 5677 5672 5667 5662 5657 5652 5647 5643 5639 5635 5631 5627 5623 5618 5613 5608 5604 5599 5596 5592 5588 5585 5581 5578 5576 5573 5571 5569 5567 5564 5562 5560 5558 5556 5555 5554 5552 5551 5549 5547 5546 5545 5544 5544 5543 5542 5540 5540 5539 5539 5539 5540 5540 5540 5539 5539 5539 5539 5540
5765 5762 5759 5755 5751 5748 5745 5742 5738 5735 5731 5729 5725 5722 5719 5716 5713 5710 5705 5701 5697 5692 5689 5685 5683 5680 5676 5670 5665 5659 5654 5648 5644 5640 5635 5631 5627 5623 5619 5614 5609 5604 5599 5594 5590 5585 5582 5578 5574 5571 5568 5565 5562 5560 5557 5555 5552 5550 5548 5546 5545 5543 5542 5540 5539 5538 5536 5535 5534 5533 5533 5533 5532 5531 5531 5530 5530 5530 5530 5530 5530 5530 5530 5530 5530 5531
5762 5759 5755 5751 5748 5745 5742 5739 5735 5731 5728 5725 5722 5718 5715 5711 5707 5704 5701 5696 5691 5687 5682 5678 5676 5674 5670 5665 5659 5652 5646 5641 5636 5632 5628 5623 5619 5614 5610 5604 5599 5594 5589 5584 5579 5575 5571 5567 5563 5560 5557 5554 5551 5548 5546 5542 5539 5537 5535 5533 5532 5531 5529 5528 5527 5526 5525 5523 5522 5521 5521 5520 5520 5520 5520 5520 5521 5521 5522 5522 5522 5522 5522 5522 5521 5521
5758 5755 5752 5749 5746 5742 5739 5736 5732 5729 5725 5722 5719 5715 5711 5707 5703 5699 5696 5693 5688 5683 5677 5672 5670 5670 5666 5660 5654 5646 5639 5634 5629 5624 5620 5615 5610 5604 5599 5593 5587 5582 5577 5572 5568 5563 5559 5555 5551 5548 5544 5541 5539 5535 5532 5529 5526 5523 5521 5519 5519 5517 5516 5515 5514 5513 5512 5511 5510 5509 5509 5508 5508 5508 5508 5509 5510 5511 5513 5514 5514 5514 5514 5514 5513 5513
5756 5753 5750 5746 5743 5739 5736 5733 5730 5727 5723 5720 5716 5712 5708 5704 5700 5696 5692 5689 5684 5678 5670 5664 5661 5662 5660 5654 5646 5638 5632 5628 5622 5617 5612 5606 5601 5595 5588 5583 5577 5571 5565 5560 5555 5551 5547 5542 5538 5534 5529 5526 5523 5520 5517 5514 5511 5508 5506 5505 5504 5502 5501 5501 5500 5499 5499 5498 5498 5497 5497 5496 5496 5496 5496 5496 5497 5499 5501 5502 5504 5504 5504 5505 5506 5507
5754 5751 5748 5744 5740 5737 5733 5730 5728 5724 5720 5716 5712 5708 5704 5700 5697 5693 5688 5684 5680 5674 5666 5660 5654 5651 5652 5648 5639 5631 5625 5621 5615 5609 5604 5598 5592 5586 5579 5573 5566 5560 5554 5548 5543 5538 5533 5528 5524 5520 5515 5510 5507 5504 5501 5498 5495 5492 5489 5488 5487 5486 5486 5485 5485 5484 5484 5484 5484 5483 5483 5483 5484 5484 5484 5484 5485 5487 5488 5489 5491 5492 5493 5494 5495 5497
5753 5749 5745 5741 5737 5734 5731 5728 5724 5720 5716 5712 5708 5704 5701 5697 5692 5688 5685 5680 5676 5672 5663 5657 5651 5644 5643 5640 5632 5625 5619 5613 5608 5601 5595 5589 5582 5576 5569 5562 5555 5548 5542 5536 5530 5524 5518 5512 5508 5504 5500 5496 5491 5487 5483 5480 5477 5474 5472 5471 5471 5470 5469 5469 5469 5469 5468 5468 5469 5469 5469 5469 5470 5470 5471 5472 5473 5474 5475 5477 5478 5479 5481 5483 5484 5486
5751 5747 5743 5739 5736 5731 5727 5724 5720 5716 5712 5708 5704 5701 5697 5694 5689 5685 5681 5677 5673 5669 5659 5651 5645 5637 5636 5634 5624 5617 5611 5605 5599 5593 5586 5580 5572 5564 5557 5549 5542 5534 5527 5521 5514 5508 5502 5496 5491 5486 5481 5478 5474 5470 5466 5462 5458 5455 5454 5454 5454 5453 5452 5452 5453 5453 5452 5452 5453 5453 5454 5454 5455 5456 5458 5459 5461 5462 5463 5465 5467 5468 5469 5471 5472 5474
5748 5744 5740 5737 5733 5729 5724 5720 5716 5712 5709 5705 5701 5698 5694 5690 5686 5681 5677 5673 5669 5665 5655 5645 5638 5628 5624 5625 5618 5608 5601 5594 5589 5582 5575 5567 5559 5551 5543 5536 5528 5520 5513 5506 5499 5493 5486 5479 5473 5467 5462 5459 5455 5451 5448 5444 5440 5437 5436 5435 5435 5435 5435 5435 5437 5437 5437 5437 5436 5437 5438 5439 5440 5442 5444 5446 5448 5449 5451 5453 5455 5457 5458 5460 5461 5462
5744 5741 5737 5733 5729 5725 5721 5716 5711 5707 5703 5700 5696 5693 5690 5686 5681 5676 5672 5668 5664 5660 5652 5641 5633 5623 5612 5611 5608 5598 5589 5583 5576 5569 5562 5554 5546 5538 5530 5522 5515 5507 5499 5492 5484 5478 5471 5464 5458 5452 5446 5441 5437 5433 5428 5424 5421 5419 5418 5418 5418 5418 5417 5417 5419 5420 5421 5421 5421 5421 5422 5423 5425 5427 5429 5432 5434 5436 5438 5441 5443 5445 5447 5448 5450 5451
5741 5737 5733 5729 5725 5722 5717 5712 5708 5703 5699 5694 5689 5685 5683 5680 5676 5670 5664 5660 5655 5650 5646 5634 5624 5617 5605 5599 5595 5587 5579 5573 5565 5557 5549 5541 5534 5526 5518 5510 5502 5493 5484 5475 5467 5461 5454 5448 5442 5435 5430 5426 5422 5416 5411 5407 5404 5403 5402 5402 5402 5402 5402 5400 5401 5402 5404 5405 5405 5406 5406 5408 5410 5412 5415 5417 5421 5423 5425 5427 5430 5432 5435 5437 5438 5439
5738 5734 5730 5726 5722 5717 5714 5709 5703 5698 5693 5688 5683 5677 5674 5670 5667 5662 5655 5650 5645 5642 5640 5631 5619 5611 5603 5594 5588 5580 5572 5564 5555 5546 5536 5527 5519 5511 5503 5494 5487 5478 5468 5459 5451 5445 5439 5431 5424 5419 5414 5410 5407 5402 5398 5395 5393 5391 5391 5389 5388 5388 5387 5385 5384 5386 5387 5389 5390 5390 5391 5393 5395 5398 5400 5403 5406 5409 5411 5414 5417 5420 5422 5424 5426 5427
5736 5732 5727 5722 5718 5713 5709 5705 5699 5693 5688 5683 5677 5670 5665 5660 5655 5651 5644 5639 5636 5634 5634 5629 5618 5609 5600 5592 5585 5576 5566 5557 5547 5537 5527 5517 5507 5498 5488 5479 5471 5463 5454 5444 5436 5429 5424 5418 5412 5407 5402 5397 5394 5391 5388 5386 5385 5383 5382 5380 5378 5376 5375 5372 5370 5371 5373 5375 5376 5376 5377 5379 5380 5383 5386 5388 5392 5394 5397 5401 5404 5407 5409 5411 5413 5415
5732 5728 5724 5719 5715 5710 5705 5701 5696 5690 5685 5680 5674 5667 5661 5655 5648 5643 5636 5629 5623 5620 5620 5618 5611 5602 5592 5583 5575 5567 5558 5549 5540 5530 5520 5510 5500 5489 5479 5469 5460 5451 5441 5432 5423 5417 5412 5406 5402 5398 5394 5389 5385 5382 5380 5378 5377 5375 5374 5372 5370 5368 5366 5364 5361 5360 5361 5362 5362 5363 5364 5365 5366 5368 5371 5374 5377 5380 5383 5387 5390 5393 5396 5398 5400 5401
5728 5724 5720 5716 5712 5707 5702 5698 5693 5688 5682 5676 5671 5664 5658 5652 5645 5640 5633 5625 5616 5608 5606 5605 5601 5594 5583 5572 5564 5555 5546 5538 5529 5520 5511 5501 5492 5481 5470 5461 5452 5440 5430 5421 5413 5407 5402 5397 5394 5391 5388 5384 5380 5376 5373 5371 5369 5368 5366 5365 5363 5361 5359 5357 5355 5353 5352 5352 5352 5352 5353 5353 5353 5355 5358 5360 5363 5366 5370 5373 5377 5379 5382 5384 5386 5387
5726 5721 5717 5713 5708 5703 5698 5694 5690 5685 5680 5673 5667 5660 5653 5646 5639 5634 5629 5624 5614 5603 5599 5596 5591 5585 5573 5559 5550 5542 5532 5524 5517 5508 5500 5490 5480 5470 5459 5449 5440 5429 5419 5411 5404 5399 5394 5390 5387 5384 5381 5378 5374 5370 5368 5366 5364 5361 5359 5358 5356 5354 5353 5350 5349 5347 5346 5345 5344 5344 5343 5343 5343 5344 5346 5348 5350 5353 5356 5359 5362 5365 5368 5370 5371 5373
5724 5720 5715 5710 5705 5700 5695 5690 5686 5682 5676 5669 5663 5655 5646 5638 5631 5624 5619 5615 5607 5595 5589 5587 5580 5572 5561 5548 5538 5530 5520 5511 5503 5494 5485 5477 5467 5457 5446 5436 5427 5417 5409 5402 5397 5393 5389 5385 5382 5379 5376 5372 5368 5365 5363 5361 5359 5356 5353 5351 5350 5348 5346 5345 5343 5341 5339 5338 5337 5336 5336 5335 5335 5335 5335 5336 5338 5340 5342 5345 5347 5350 5353 5356 5357 5358
5721 5718 5713 5707 5702 5697 5692 5687 5682 5678 5672 5665 5659 5651 5642 5634 5626 5619 5612 5605 5596 5584 5576 5574 5571 5562 5551 5539 5528 5518 5508 5496 5487 5480 5473 5464 5455 5443 5433 5424 5415 5407 5400 5395 5391 5387 5384 5381 5378 5374 5371 5367 5363 5360 5358 5356 5353 5351 5348 5346 5344 5342 5341 5339 5337 5336 5334 5333 5332 5331 5330 5329 5328 5328 5328 5328 5328 5329 5331 5333 5334 5336 5339 5341 5343 5344
5718 5714 5710 5704 5699 5694 5690 5684 5678 5672 5667 5661 5654 5647 5641 5634 5625 5618 5612 5605 5596 5585 5570 5560 5558 5554 5542 5530 5520 5509 5499 5487 5476 5469 5463 5454 5444 5433 5423 5414 5406 5398 5393 5388 5385 5382 5379 5376 5373 5370 5366 5362 5359 5355 5353 5350 5348 5346 5343 5341 5339 5337 5335 5334 5332 5331 5330 5329 5327 5326 5325 5324 5323 5323 5323 5322 5322 5322 5323 5324 5324 5325 5326 5328 5330 5331
5714 5710 5707 5702 5697 5692 5686 5681 5675 5669 5663 5656 5649 5642 5636 5630 5621 5612 5608 5603 5594 5584 5569 5552 5545 5545 5535 5523 5514 5503 5493 5481 5469 5460 5453 5444 5435 5425 5416 5407 5399 5392 5388 5384 5380 5376 5373 5371 5369 5366 5362 5358 5355 5351 5348 5345 5343 5341 5339 5337 5335 5333 5331 5329 5327 5326 5325 5324 5323 5322 5320 5320 5319 5318 5317 5317 5316 5316 5317 5317 5317 5317 5317 5318 5319 5320
5711 5707 5703 5698 5694 5689 5684 5678 5672 5665 5657 5650 5643 5636 5629 5622 5614 5604 5599 5597 5589 5578 5567 5550 5538 5536 5528 5514 5506 5497 5485 5474 5462 5452 5444 5435 5427 5418 5409 5402 5394 5388 5384 5380 5376 5373 5369 5366 5364 5362 5358 5354 5351 5347 5344 5341 5338 5336 5334 5332 5330 5328 5326 5324 5322 5321 5320 5319 5318 5317 5316 5315 5314 5313 5312 5311 5311 5311 5310 5310 5310 5310 5310 5311 5311 5311
5707 5703 5699 5694 5689 5685 5681 5676 5670 5663 5656 5649 5643 5636 5628 5619 5611 5601 5591 5587 5582 5572 5563 5551 5538 5534 5527 5510 5498 5492 5482 5467 5454 5445 5437 5427 5418 5410 5402 5396 5389 5384 5381 5377 5373 5369 5365 5362 5359 5357 5354 5350 5347 5343 5339 5336 5334 5331 5329 5327 5325 5323 5321 5319 5317 5316 5315 5314 5313 5312 5311 5310 5309 5308 5307 5306 5306 5305 5305 5305 5304 5304 5304 5304 5303 5303
5702 5699 5695 5691 5688 5685 5680 5674 5668 5663 5656 5650 5644 5636 5627 5617 5609 5602 5592 5583 5575 5563 5552 5541 5530 5527 5524 5509 5494 5485 5476 5461 5447 5438 5429 5417 5407 5400 5394 5388 5383 5379 5376 5373 5370 5366 5362 5358 5356 5353 5350 5347 5343 5339 5335 5332 5329 5327 5324 5322 5320 5318 5316 5314 5312 5310 5309 5308 5308 5307 5305 5304 5303 5302 5302 5301 5301 5300 5300 5299 5299 5299 5298 5298 5297 5296
5698 5693 5687 5683 5679 5676 5672 5666 5660 5655 5649 5642 5635 5628 5620 5611 5602 5596 5589 5580 5570 5558 5546 5533 5519 5516 5516 5502 5485 5475 5465 5450 5437 5428 5419 5407 5397 5391 5386 5382 5377 5373 5371 5369 5365 5362 5358 5355 5352 5349 5346 5343 5339 5335 5330 5327 5324 5321 5319 5317 5315 5313 5311 5309 5307 5305 5304 5303 5302 5301 5300 5299 5298 5297 5296 5296 5295 5295 5294 5293 5293 5293 5292 5291 5291 5290
5695 5689 5682 5675 5667 5660 5656 5652 5645 5641 5637 5632 5626 5620 5613 5605 5596 5587 5579 5570 5559 5549 5542 5530 5510 5502 5503 5491 5473 5462 5452 5437 5424 5416 5409 5400 5390 5384 5379 5376 5372 5368 5365 5363 5360 5357 5354 5351 5348 5345 5342 5338 5334 5329 5325 5321 5318 5315 5313 5312 5309 5307 5305 5304 5302 5300 5299 5298 5297 5296 5295 5294 5293 5292 5291 5290 5289 5288 5288 5287 5286 5285 5284 5283 5283 5282
5692 5686 5680 5673 5666 5658 5653 5648 5641 5635 5631 5626 5621 5616 5609 5600 5589 5578 5569 5561 5548 5537 5532 5524 5504 5487 5484 5476 5459 5448 5439 5426 5412 5403 5396 5389 5382 5377 5373 5370 5367 5364 5360 5357 5354 5351 5348 5346 5343 5340 5337 5333 5329 5325 5320 5316 5313 5310 5307 5306 5304 5302 5300 5298 5297 5295 5294 5293 5292 5291 5290 5289 5288 5286 5285 5284 5283 5282 5281 5280 5279 5278 5277 5275 5274 5273
5689 5684 5679 5673 5668 5661 5655 5650 5642 5634 5628 5623 5618 5611 5605 5597 5586 5574 5563 5553 5541 5526 5517 5514 5502 5484 5472 5463 5449 5436 5427 5414 5402 5394 5387 5378 5372 5368 5365 5363 5361 5358 5355 5352 5349 5346 5343 5340 5337 5334 5331 5327 5324 5320 5316 5313 5309 5305 5302 5300 5298 5297 5295 5293 5291 5290 5288 5287 5286 5285 5283 5282 5281 5280 5279 5278 5277 5275 5274 5272 5271 5269 5268 5267 5265 5264
5686 5681 5676 5672 5667 5661 5654 5648 5641 5633 5626 5620 5614 5608 5600 5592 5582 5571 5561 5549 5535 5522 5510 5501 5493 5480 5466 5454 5442 5428 5416 5404 5395 5388 5381 5372 5366 5362 5359 5356 5355 5352 5350 5347 5344 5341 5338 5335 5331 5327 5324 5321 5317 5314 5311 5308 5305 5302 5299 5297 5294 5292 5290 5288 5286 5284 5283 5281 5280 5278 5277 5276 5275 5274 5272 5271 5270 5269 5267 5265 5264 5262 5260 5259 5256 5255
5683 5678 5673 5668 5665 5659 5652 5646 5638 5631 5624 5618 5612 5605 5596 5587 5576 5564 5557 5548 5533 5521 5509 5495 5484 5474 5460 5447 5434 5421 5410 5400 5392 5384 5375 5366 5361 5357 5354 5352 5350 5347 5345 5342 5339 5336 5332 5329 5326 5322 5318 5315 5312 5308 5306 5303 5301 5298 5296 5293 5290 5288 5285 5282 5280 5278 5276 5275 5273 5272 5270 5269 5268 5267 5266 5265 5264 5262 5261 5258 5256 5255 5253 5251 5248 5246
5680 5675 5669 5664 5660 5655 5649 5644 5635 5626 5619 5613 5607 5599 5590 5584 5574 5558 5549 5541 5526 5514 5505 5491 5475 5464 5453 5441 5428 5416 5406 5396 5387 5377 5369 5362 5356 5352 5350 5348 5346 5343 5341 5338 5335 5331 5328 5324 5321 5317 5313 5310 5306 5303 5300 5298 5295 5293 5291 5288 5285 5283 5280 5278 5275 5273 5271 5269 5267 5265 5264 5263 5262 5261 5260 5259 5257 5255 5253 5251 5249 5248 5246 5242 5239 5237
5676 5671 5666 5660 5654 5648 5642 5638 5631 5621 5613 5606 5600 5593 5585 5578 5570 5555 5542 5531 5514 5499 5490 5480 5467 5455 5445 5434 5423 5413 5403 5391 5380 5371 5362 5357 5353 5349 5346 5344 5342 5340 5337 5334 5331 5327 5324 5320 5316 5312 5309 5305 5302 5298 5295 5292 5290 5288 5285 5283 5281 5278 5275 5273 5270 5267 5265 5263 5261 5259 5257 5256 5255 5254 5253 5252 5250 5248 5246 5244 5242 5240 5237 5234 5230 5228
5671 5666 5660 5654 5649 5643 5637 5630 5624 5616 5608 5601 5593 5585 5574 5566 5559 5550 5540 5527 5511 5496 5484 5473 5462 5450 5437 5426 5414 5402 5392 5382 5373 5364 5356 5351 5349 5347 5344 5341 5339 5336 5333 5330 5327 5323 5319 5316 5311 5307 5304 5300 5297 5294 5291 5287 5284 5282 5279 5277 5275 5272 5269 5267 5264 5261 5259 5256 5254 5253 5251 5249 5248 5247 5246 5244 5242 5240 5238 5236 5234 5232 5228 5225 5222 5219
5666 5660 5654 5648 5643 5638 5633 5627 5621 5611 5601 5591 5582 5571 5561 5553 5546 5541 5536 5524 5510 5500 5489 5474 5458 5442 5429 5418 5405 5391 5382 5374 5367 5361 5354 5348 5344 5342 5341 5339 5335 5333 5330 5327 5323 5319 5315 5311 5307 5303 5299 5295 5292 5289 5286 5283 5279 5276 5273 5270 5268 5265 5263 5260 5258 5255 5252 5250 5248 5246 5244 5243 5241 5240 5239 5237 5235 5233 5230 5228 5226 5223 5219 5216 5214 5211
5662 5656 5649 5643 5637 5631 5625 5619 5612 5601 5589 5581 5573 5563 5556 5550 5543 5538 5536 5524 5504 5490 5478 5463 5449 5435 5423 5414 5402 5390 5382 5374 5366 5358 5351 5346 5342 5338 5336 5335 5332 5329 5326 5323 5319 5315 5311 5307 5303 5299 5295 5291 5287 5284 5281 5278 5275 5272 5269 5265 5262 5260 5257 5254 5251 5249 5246 5243 5241 5239 5238 5236 5235 5234 5232 5230 5228 5225 5223 5221 5218 5215 5211 5209 5207 5204
5659 5652 5644 5637 5630 5623 5616 5610 5603 5595 5586 5579 5570 5558 5548 5541 5530 5519 5517 5511 5494 5476 5462 5452 5445 5434 5421 5411 5399 5387 5379 5373 5366 5357 5348 5343 5340 5337 5333 5330 5327 5325 5322 5318 5314 5310 5307 5303 5298 5295 5291 5287 5283 5279 5275 5272 5269 5266 5264 5260 5257 5254 5251 5248 5245 5242 5240 5237 5235 5233 5231 5230 5229 5227 5225 5223 5221 5219 5216 5214 5211 5208 5205 5203 5200 5198
5655 5648 5641 5633 5625 5616 5608 5604 5600 5593 5583 5573 5564 5551 5537 5528 5518 5504 5497 5494 5484 5471 5460 5450 5440 5427 5413 5403 5393 5381 5373 5368 5363 5355 5347 5342 5339 5335 5331 5327 5322 5319 5316 5312 5309 5305 5302 5299 5295 5290 5286 5282 5278 5274 5270 5266 5263 5260 5258 5255 5252 5249 5245 5242 5239 5237 5234 5231 5229 5227 5225 5224 5223 5221 5219 5217 5215 5213 5210 5208 5205 5202 5199 5197 5196 5194
5650 5644 5637 5629 5622 5613 5604 5597 5591 5584 5574 5564 5557 5549 5536 5526 5517 5505 5496 5490 5482 5470 5458 5444 5430 5416 5403 5394 5384 5374 5365 5360 5357 5351 5344 5340 5337 5332 5328 5324 5319 5315 5311 5307 5304 5301 5297 5294 5290 5286 5281 5277 5272 5268 5264 5261 5258 5255 5252 5249 5246 5243 5240 5237 5234 5231 5228 5225 5223 5221 5220 5218 5217 5216 5214 5211 5209 5207 5204 5201 5199 5196 5194 5193 5192 5190
5647 5640 5633 5626 5619 5612 5603 5594 5584 5575 5567 5557 5549 5543 5535 5523 5512 5501 5494 5487 5478 5463 5446 5432 5421 5409 5396 5387 5378 5368 5358 5352 5349 5347 5342 5337 5334 5329 5324 5321 5317 5313 5309 5304 5300 5296 5293 5289 5285 5281 5276 5272 5267 5263 5259 5256 5253 5250 5247 5244 5241 5238 5235 5231 5228 5225 5223 5220 5218 5216 5215 5214 5212 5210 5208 5206 5204 5201 5198 5196 5193 5192 5190 5189 5188 5187
5645 5639 5631 5624 5617 5609 5602 5595 5586 5574 5564 5554 5544 5536 5529 5520 5509 5495 5480 5468 5459 5448 5435 5423 5414 5403 5392 5383 5375 5366 5356 5348 5343 5341 5339 5335 5332 5329 5323 5319 5315 5310 5306 5302 5297 5293 5289 5284 5280 5275 5271 5267 5263 5258 5254 5250 5247 5244 5241 5238 5236 5233 5230 5226 5223 5220 5217 5215 5214 5212 5211 5209 5207 5205 5203 5201 5198 5196 5193 5191 5189 5188 5187 5186 5185 5184
5644 5637 5629 5621 5613 5605 5597 5591 5585 5576 5564 5554 5544 5531 5519 5511 5502 5486 5469 5453 5442 5435 5427 5416 5406 5396 5386 5377 5369 5361 5355 5348 5341 5337 5335 5332 5329 5326 5322 5317 5313 5308 5303 5299 5294 5289 5284 5280 5274 5269 5265 5261 5257 5253 5249 5245 5242 5238 5235 5233 5231 5228 5225 5222 5218 5215 5213 5211 5210 5208 5207 5205 5203 5201 5199 5196 5193 5191 5189 5188 5187 5186 5185 5184 5182 5181
5638 5631 5624 5616 5609 5602 5592 5585 5580 5572 5560 5549 5540 5527 5510 5496 5484 5474 5465 5454 5441 5429 5420 5410 5400 5391 5381 5373 5366 5358 5352 5347 5341 5336 5332 5328 5324 5321 5317 5313 5309 5304 5299 5294 5289 5284 5279 5274 5270 5264 5259 5254 5250 5246 5243 5240 5236 5233 5230 5228 5226 5223 5220 5217 5213 5211 5209 5207 5206 5204 5203 5201 5199 5197 5194 5191 5189 5188 5187 5186 5185 5184 5183 5182 5180 5179
5632 5624 5616 5608 5600 5594 5586 5575 5565 5557 5547 5536 5524 5514 5502 5490 5479 5470 5463 5454 5442 5429 5418 5409 5400 5390 5379 5371 5365 5358 5350 5343 5338 5333 5329 5325 5321 5317 5313 5308 5303 5298 5293 5288 5284 5278 5274 5269 5264 5259 5253 5248 5243 5239 5236 5233 5230 5227 5224 5223 5221 5218 5215 5212 5209 5207 5206 5204 5203 5201 5200 5198 5195 5193 5191 5189 5187 5186 5185 5185 5184 5183 5182 5181 5179 5178
5627 5620 5612 5603 5592 5583 5575 5567 5558 5549 5540 5529 5517 5508 5501 5493 5483 5471 5459 5450 5442 5433 5421 5410 5400 5390 5379 5368 5361 5355 5348 5340 5335 5330 5326 5322 5317 5312 5308 5303 5298 5293 5288 5283 5278 5273 5268 5263 5258 5253 5247 5241 5237 5233 5229 5226 5223 5221 5219 5217 5216 5214 5211 5208 5205 5204 5203 5201 5200 5199 5197 5195 5192 5190 5189 5187 5186 5185 5185 5185 5184 5183 5182 5180 5179 5178
5625 5617 5611 5604 5595 5584 5574 5566 5559 5551 5543 5535 5525 5515 5505 5494 5483 5473 5464 5455 5446 5435 5423 5409 5396 5385 5376 5366 5358 5351 5344 5337 5332 5327 5323 5318 5314 5309 5304 5299 5294 5288 5283 5278 5273 5268 5262 5256 5250 5245 5240 5234 5229 5225 5222 5219 5217 5215 5214 5212 5211 5210 5207 5204 5202 5201 5200 5199 5198 5196 5194 5192 5190 5188 5187 5186 5186 5185 5185 5185 5184 5182 5182 5181 5180 5179
5623 5616 5610 5604 5598 5592 5582 5571 5562 5554 5544 5536 5527 5517 5505 5495 5487 5478 5469 5458 5446 5434 5421 5406 5392 5380 5371 5361 5353 5347 5340 5333 5328 5324 5319 5314 5310 5305 5300 5296 5290 5284 5279 5274 5268 5261 5255 5249 5243 5238 5232 5227 5222 5218 5215 5213 5211 5209 5208 5208 5206 5205 5203 5201 5199 5198 5197 5196 5195 5194 5191 5190 5188 5187 5186 5186 5186 5186 5185 5185 5183 5182 5182 5181 5180 5179
5621 5615 5610 5603 5597 5592 5585 5575 5564 5554 5542 5531 5525 5520 5513 5505 5495 5482 5469 5456 5443 5429 5416 5403 5390 5379 5369 5358 5349 5343 5337 5330 5325 5321 5317 5312 5306 5301 5296 5291 5286 5280 5274 5267 5261 5254 5247 5242 5236 5230 5224 5219 5214 5211 5209 5207 5206 5204 5203 5203 5202 5201 5199 5198 5196 5196 5195 5194 5193 5191 5189 5188 5187 5186 5186 5186 5186 5186 5186 5185 5184 5183 5182 5181 5180 5179
5617 5609 5603 5598 5592 5585 5579 5573 5567 5560 5550 5540 5531 5523 5513 5503 5493 5481 5467 5453 5440 5427 5416 5404 5390 5376 5365 5354 5345 5339 5334 5329 5323 5319 5315 5310 5304 5298 5293 5287 5282 5276 5269 5263 5256 5248 5241 5234 5227 5221 5215 5210 5206 5204 5202 5202 5201 5199 5199 5199 5199 5197 5196 5195 5194 5194 5193 5192 5191 5189 5188 5187 5187 5186 5187 5187 5187 5186 5186 5185 5184 5183 5182 5181 5180 5179
5613 5605 5597 5592 5588 5582 5576 5570 5564 5559 5552 5543 5530 5518 5505 5494 5483 5473 5462 5450 5438 5426 5415 5404 5391 5377 5363 5351 5342 5336 5332 5328 5322 5318 5313 5308 5302 5296 5291 5285 5279 5273 5266 5259 5251 5243 5235 5227 5220 5214 5208 5203 5199 5197 5197 5197 5196 5196 5196 5196 5195 5194 5193 5193 5192 5192 5191 5190 5189 5187 5186 5186 5186 5187 5187 5187 5187 5186 5186 5185 5184 5183 5182 5181 5180 5180
5611 5605 5598 5589 5581 5574 5567 5558 5548 5539 5531 5523 5514 5504 5496 5486 5475 5465 5456 5446 5435 5421 5408 5397 5387 5378 5367 5354 5342 5334 5330 5326 5322 5317 5312 5306 5300 5294 5288 5282 5276 5270 5262 5254 5246 5238 5230 5222 5215 5209 5203 5198 5195 5193 5193 5193 5193 5193 5193 5194 5193 5192 5191 5191 5191 5190 5190 5189 5187 5186 5186 5186 5186 5187 5187 5187 5187 5186 5186 5186 5185 5184 5183 5182 5181 5180
5606 5601 5594 5585 5574 5563 5554 5546 5538 5529 5520 5512 5504 5496 5488 5480 5471 5461 5451 5441 5430 5417 5404 5391 5379 5371 5364 5355 5344 5334 5328 5325 5320 5314 5309 5304 5298 5292 5285 5278 5272 5265 5258 5250 5242 5234 5226 5218 5212 5206 5201 5196 5193 5192 5192 5192 5191 5191 5192 5192 5191 5190 5190 5189 5189 5189 5188 5187 5186 5185 5185 5185 5186 5187 5187 5187 5187 5186 5186 5186 5185 5185 5184 5183 5182 5181